RADUGA-1 3 [-]

Last updated on Tue Jun 27 2023 00:03:02 GMT+0000 (Coordinated Universal Time)

1 22981U 94008A 23176.61437528 .00000093 00000+0 00000+0 0 9998 2 22981 14.5987 356.4556 0005539 116.6353 71.4657 1.00256285107602

Satellite not in orbit

RADUGA-1 3 [-]